Regional Weather Roundup
Issued by NWS Wakefield, VA

Home | Current Version | Previous Version | Graphics & Text | Print | Product List | Glossary On
Versions: 1 2 3 4 5 6 7 8 9 10 11 12 13 14 15 16 17 18 19 20 21 22 23 24 25 26 27 28 29 30 31 32 33 34 35 36 37 38 39 40 41 42 43 44 45 46 47 48 49 50
000
ASUS41 KAKQ 180310
RWRAKQ

REGIONAL WEATHER ROUNDUP
NATIONAL WEATHER SERVICE WAKEFIELD VA
1100 PM EDT WED SEP 17 2014

Note: "fair" indicates few or no clouds below 12,000 feet with no
significant weather and/or obstructions to visibility. * = Denotes
station may not report precipitation (e.g., rain,snow,etc.),
thunder or fog.

VAZ042-051-052>054-056-180400-
NORTHERN VIRGINIA

CITY           SKY/WX    TMP DP  RH WIND       PRES   REMARKS
WASH NATIONAL  PTCLDY    67  49  52 S3        29.99S
DULLES         MOCLDY    61  52  72 SE3       29.99R
FORT BELVOIR   CLEAR     57  55  95 CALM      29.99S
QUANTICO       CLEAR     62  58  86 NW5       29.99S
FREDERICKSBRG* CLEAR     59  55  87 CALM      29.97F
STAFFORD*      CLEAR     54  54 100 CALM      30.02S
WARRENTON      CLEAR     52  52 100 CALM      29.98S FOG
CULPEPER*      CLEAR     55  54  94 CALM      30.00R
MANASSAS*      CLEAR     57  55  94 CALM      29.99
LEESBURG*      MOCLDY    59  57  94 CALM      30.00S
WINCHESTER     CLOUDY    61  54  77 CALM      29.99S
FRONT ROYAL*   CLOUDY    55  54  94 CALM      29.97F
LURAY*         CLOUDY    61  55  82 CALM      29.99S
$$

VAZ048-049-060>072-079>083-180400-
CENTRAL AND SOUTH CENTRAL VIRGINIA...AND NORTH CENTRAL NORTH CAROLINA

CITY           SKY/WX    TMP DP  RH WIND       PRES   REMARKS
RICHMOND       PTCLDY    65  58  78 CALM      29.98S
CHESTERFIELD*  CLEAR    N/A N/A N/A CALM      29.98F
PETERSBURG*    CLEAR     58  56  94 CALM      29.98F
HANOVER        CLEAR     59  58  96 CALM      29.99F
TAPPAHANNOCK*  CLEAR     57  54  89 CALM      29.99S
CHARLOTTSVILLE PTCLDY    59  55  87 N3        29.98S
ORANGE*        CLEAR     55  52  88 CALM      30.00S
LOUISA*        CLEAR     63  55  77 CALM      29.97S
FARMVILLE*     PTCLDY    57  57 100 CALM      29.96S
CREWE*         PTCLDY    59  57  93 CALM      29.97F
FORT PICKETT*  PTCLDY    63  60  91 E3        29.98S
LUNENBURG*     PTCLDY    62  61  95 CALM      29.98S
SOUTH HILL*    PTCLDY    63  63 100 CALM      30.03S FOG
LAWRENCEVILLE* PTCLDY    63  61  94 CALM      29.98S
ROANOKE RAPIDS PTCLDY    59  59 100 CALM      29.97F
RALEIGH        MOCLDY    69  62  78 E6        29.97R
$$

VAZ088>098-180400-
SOUTHEAST VIRGINIA

CITY           SKY/WX    TMP DP  RH WIND       PRES   REMARKS
NORFOLK        CLEAR     67  57  70 E5        29.97S
VIRGINIA BEACH PTCLDY    67  56  67 E6        29.97R
NORFOLK NAVAL  CLEAR     68  57  68 E5        29.99R
WEST POINT*    CLEAR     62  59  89 CALM      29.99S
NEWPORT NEWS   CLEAR     64  59  83 CALM      29.97F
LANGLEY AFB    CLEAR     67  58  74 E6        29.97S
FORT EUSTIS    CLEAR     62  62 100 CALM      29.96S
WILLIAMSBURG*  CLEAR     64  63  94 CALM      29.98F
HR EXEC AP*    CLEAR     55  54  94 CALM      30.00R
FRANKLIN*      CLEAR     61  57  88 CALM      29.98S
WAKEFIELD      CLEAR     61  58  90 CALM      29.98S
$$

VAZ020-022-025-037-045-180400-
WEST CENTRAL AND SOUTHWEST VIRGINIA

CITY           SKY/WX    TMP DP  RH WIND       PRES   REMARKS
STAUNTON*      MOCLDY    57  52  81 CALM      30.00F
HOT SPRINGS VA CLEAR     53  40  61 S6        30.07S
LYNCHBURG      PTCLDY    55  55 100 CALM      30.00S
DANVILLE       CLEAR     61  58  90 CALM      29.98S
SOUTH BOSTON*  NOT AVBL
MARTINSVILLE   CLEAR     57  57 100 CALM      30.02S FOG
ROANOKE        CLEAR     58  55  90 CALM      30.01S
BLACKSBURG     PTCLDY    57  57 100 CALM      30.04S
DUBLIN*        CLOUDY    60  60  98 CALM      30.03S
MARION*        MOCLDY    59  57  93 CALM      30.06S
HILLSVILLE*    PTCLDY    57  56  97 S3        30.04S
RICHLANDS*     CLOUDY    61  59  92 N5        30.04S FOG
WISE*          CLEAR     55  55 100 CALM      30.04F
ABINGDON*      CLEAR     58  57  95 CALM      30.01F FOG
$$

MDZ021>025-VAZ099-100-180400-
SOUTHERN MARYLAND AND THE DELMARVA PENINSULA

CITY           SKY/WX    TMP DP  RH WIND       PRES   REMARKS
PATUXENT RIVER PTCLDY    57  53  86 S5        29.97S
BAY BRIDGE APT   N/A     63  52  67 SE5       29.99R
LEONARDTOWN    CLEAR     55  50  82 CALM      29.99S
DOVER          CLEAR     60  52  72 S3        29.96S
GEORGETOWN     CLEAR     55  50  83 S3        29.99F
EASTON         CLEAR     61  54  78 CALM      30.02
CAMBRIDGE      CLEAR     59  54  82 CALM      29.98S
SALISBURY      CLEAR     57  51  80 CALM      29.99R
OCEAN CITY     CLEAR     54  51  90 CALM      29.98S
WALLOPS ISLAND CLEAR     62  54  74 CALM      29.99S
ACCOMACK*      CLEAR     55  54  94 CALM      29.98S
$$

NCZ012>017-030>032-180400-
EASTERN NORTH CAROLINA

CITY           SKY/WX    TMP DP  RH WIND       PRES   REMARKS
ELIZABETH CITY CLOUDY    68  61  78 NE6       29.97R
AHOSKIE*       CLOUDY    62  60  92 CALM      29.98S
EDENTON*       MOCLDY    65  62  87 NE3       29.97R
CURRITUCK*     CLOUDY    71  57  62 NE6       29.97S
KILL DEVIL HLS PTCLDY    71  60  67 E8        29.94S
MANTEO         CLEAR     70  61  72 NE10      29.95S
CAPE HATTERAS  CLEAR     70  63  78 NE8G18    29.92S
TARBORO*       PTCLDY    64  61  91 CALM      29.98S
GOLDSBORO      PTCLDY    67  67  98 CALM      29.94R
WASHINGTON     PTCLDY    65  62  88 CALM      29.96S
GREENVILLE     CLEAR     64  63  94 CALM      29.98S
NEW BERN       CLEAR     70  63  78 NE5       29.95S
WILMINGTON     CLEAR     70  67  90 NE8       29.92R
$$

VAZ048-180400-
ELSEWHERE

CITY           SKY/WX    TMP DP  RH WIND       PRES   REMARKS
HARRISBURG PA  PTCLDY    58  51  78 CALM      29.98R
BALTIMORE      PTCLDY    56  53  90 CALM      29.98S
ANNAPOLIS      CLEAR     63  60  90 CALM      29.98S
ANDREWS AFB    CLEAR     56  52  88 CALM      29.98S
WILMINGTON DE  CLEAR     59  54  83 CALM      29.99S
PHILADELPHIA   PTCLDY    62  53  72 S3        29.99S
WILDWOOD NJ*   CLEAR     55  50  82 CALM      29.99F
ATLANTIC CITY  CLEAR     54  52  93 CALM      29.99S
HENDERSON NC   PTCLDY    64  62  94 CALM      29.98S FOG
GREENSBORO     PTCLDY    64  61  90 E3        29.97F
ROCKY MOUNT    MOCLDY    66  60  81 E5        29.96S
FAYETTEVILLE   CLOUDY    71  65  81 NE5       29.94R
CHARLOTTE      CLEAR     66  63  90 N7        29.97S
$$

VAZ100-180400-
MARINE

STATION/POSITION TIME  TEMP    WIND        PRES    WAVE   SWELL
                       AIR SEA DIR/SP/G            HT/PER HT/PER
                 (UTC) (F)     (DEG/KT/KT) (MB)    (FT/S) (FT/S)
44066 TX TWR #4  0300   66 74   30/  6/  8 1015.3F   4/14   5/14
CAPE MAY NJ      0300   61 76   90/  2/  2 1014.8S
LEWES DE         0300   64 72  180/  4/  4 1015.0F
15NM E FENWICK I 0300   69 72              1015.0F   5/14
OCEAN-CITY-INLET 0300   68 72  110/  3/  5 1014.9S
WACHAPREAGUE VA  0300   67 75   80/  4/  5 1015.2F
THOMAS POINT MD  0300   68 75  130/ 10/ 11 1016.1R
GOOSES REEF MD   0300   69     150/ 14/ 16 1015.4R
COVE POINT MD    0300   69     160/ 13/ 15 1014.9S
SOLOMONS ISLAND  0300      77                N/A
BISHOPS HEAD MD  0300   68 74  120/ 11/ 12 1014.7F
PINEY POINT MD   0300          190/  4/  5   N/A
POTOMAC MD       0200   72     130/  4/  6 1014.3S
CAMBRIDGE MD     0300   64 75  150/  5/  8 1015.0R
LEWISETTA VA     0300   66 74  180/  5/  6 1014.6F
RAPPAHANNOCK LGT 0300           90/  9/ 10 1015.6S
STINGRAY PT      0300   70     120/  8/ 10   N/A
YORK RVR RNG VA  0300   71     110/  9/ 11 1014.5S
YORKTOWN VA      0300   71 77  110/  7/  9 1014.7S
JAMESTOWN VA     0300   67     110/  4/  4   N/A
DOMINION TERM VA 0300   72      90/  3/  8 1015.0S
KIPTOPEKE VA     0300      78   90/  3/  4   N/A
CHES BAY BRIDGE  0300   71 76   50/ 11/ 13 1014.5S
CAPE HENRY VA    0300   70      60/ 11/ 13 1013.7S
CHESAPEAKE LGHT  0200   70      70/ 15/ 16 1015.1F
WILLOUBY STN VA  0300   71      70/  9/ 11 1013.5F
S CRANEY ISL VA  0300           70/  5/  6 1014.6F
CAPE HENRY BUOY  0300      75                N/A     4/13   3/13
1ST LANDING BUOY 0300   71      70/ 10/ 12 1014.7R
CAPE CHARLES BUO 0300      75                N/A     4/12   3/12
OFFSHORE WE BUOY 0300      74                N/A     5/12   5/12
64NM E OF VA BCH 0300   72 77   40/ 14/ 17 1013.8S   5/11   3/11
DUCK PIER NC     0300   72 76   60/ 14/ 16 1013.6F
44100 DUCK FRF   0300      74                N/A     5/14   3/14
44056 DUCK FRF   0300                        N/A     5/13   3/13
OREGON INLET NC  0300   72 76   40/ 12/ 17 1013.7R
HATTERAS NC      0300   73 78   40/ 11/ 16 1013.7S
DIAMOND SHLS NC  0300   74      40/ 14/ 19 1012.7R   6/14   3/14
CAPE LOOKOUT NC  0200   76      50/ 20/ 21 1013.0R
$$


USA.gov is the U.S. government's official web portal to all federal, state and local government web resources and services.